BREEZE-KM R/B, 40923

Orbit data source: Space-Track

BREEZE-KM R/B, 40923 is space debris in LEO originally from a launch on Wed, 23 Sep 2015 UTC launched from the Plesetsk Missile And Space Complex (PKMTR). Debris objects in space refer to the collection of defunct objects orbiting the Earth. Examples of debris include non-operational satellites, rocket bodies, and fragments generated from explosions, collisions, or faulty payload assembly.

Loading next visibility...
Identifier
40923, 2015-050D
Orbit
LEO
Last TLE update
10 hours ago
Origin
Manufacturer
Khrunichev
Mission
Spacecraft
Bus & Motor
BRIZ, S5.92
Mass
2,370 kg wet, 2,370 kg dry
Launch date (UTC)
2015-09-23 (10 years ago)
Launch vehicle
Unknown
Launch site
Plesetsk Missile And Space Complex (PKMTR)
Object type
Payload
Rocket body
Debris
Shape & HBR
Hex Cyl + 1 Rod, 4.1 m
Radar Cross Section
10.190 m², Large (>1 m²)

Expand to show TLE details & history

TLE from 10 hours ago
0 BREEZE-KM R/B
1 40923U 15050D   25186.91202664  .00000016  00000-0  19183-4 0  9994
2 40923  82.4892 132.6988 0202210 192.0168 167.6071 12.80437152457258
Epoch: 2025-07-05T21:53Z
TLE epoch observation values (Epoch: 2025-07-05T21:53:19.101Z)
Latitude
-0.00004°
Longitude
-119.77406°
Altitude
1,495.061 km
Speed
7.046 km/s
True Right ascension
08h 50m 47s
True Declination
0° 00' 00"
Sunlit
Object was in daylight at epoch
Visualization orbit readout
Latitude
54.85562°
Longitude
49.20696°
Altitude
1,283.876 km
Speed
7.249 km/s
Apparent Right ascension
06h 02m 00s
Apparent Declination
75° 45' 18"
Sunlit
Object is in daylight
Visualization observer readout
Local Sidereal Time
19:53:21
Azimuth
7.415° NNE
Elevation
27.068°
Doppler factor
1
Orbital elements
Apogee altitude
1,493.018 km
Perigee altitude
1,181.002 km
Semi-major axis
7,715.147 km
Eccentricity
0.02022
Inclination
82.4892°
RAAN
132.6988°
Arg. of periapsis
192.0168°
True anomaly
Unknown
Mean anomaly
167.6071°
Eccentric anomaly
Unknown
Mean motion
3.20278 °/min
Orbital period
112.4 mins
BSTAR
0.000019183
Loading maneuver chart data...
Loading SW <> Apogee altitude chart data...
Loading historical data...
Loading historical data...
Loading historical data...
Loading historical data...
Loading historical data...
Loading historical data...
Loading historical data...
Other satellites on launch #50 in the year 2015 (2015-09-23 UTC)

BREEZE-KM R/B Visibility forecast

Observer location: undefined°, undefined°

Span
Click to sort rows by Start time (UTC) header in descending order
Start Az.
Max El. time (UTC)
Max El. Az.
Max El.
End time (UTC)
End Az.
11 mins2025-07-06 07:55:36.700Z7.454° NNE2025-07-06 07:59:36.700Z64.683° ENE41.043°2025-07-06 08:06:36.700Z157.642° S
9 mins2025-07-06 09:48:36.700Z316.907° NNW2025-07-06 09:52:36.700Z278.699° WNW21.379°2025-07-06 09:57:36.700Z232.682° WSW
15 mins2025-07-06 20:29:36.700Z161.666° S2025-07-06 20:36:36.700Z87.701° E39.501°2025-07-06 20:44:36.700Z16.578° NNE
13 mins2025-07-06 22:23:36.700Z232.205° WSW2025-07-06 22:30:36.700Z294.076° NW28.212°2025-07-06 22:36:36.700Z345.662° N
7 mins2025-07-07 06:25:36.700Z37.662° NE2025-07-07 06:28:36.700Z64.177° ENE15.872°2025-07-07 06:32:36.700Z98.191° ESE
|